Regional Weather Roundup
Issued by NWS Albany, NY

Home | Current Version | Previous Version | Text Only | Print | Product List | Glossary On
Versions: 1 2 3 4 5 6 7 8 9 10 11 12 13 14 15 16 17 18 19 20 21 22 23 24 25 26 27 28 29 30 31 32 33 34 35 36 37 38 39 40 41 42 43 44 45 46 47 48 49 50
074
ASUS41 KALY 061410
RWRALY

NEW YORK STATE HOURLY WEATHER ROUNDUP
NATIONAL WEATHER SERVICE ALBANY NY
1000 AM EDT FRI MAY 06 2016

NOTE: "FAIR" INDICATES FEW OR NO CLOUDS BELOW 12,000 FEET WITH NO
SIGNIFICANT WEATHER AND/OR NO OBSTRUCTIONS TO VISIBILITY.

NYZ032-033-038>043-046>054-057>066-NYZ062>081-082-084-061500-
EAST


CITY           SKY/WX    TMP DP  RH WIND       PRES   REMARKS
ALBANY         CLOUDY    57  41  55 N14       29.80R
GLENS FALLS    CLOUDY    58  40  51 NE17      29.80R
POUGHKEEPSIE   RAIN      52  48  86 N9        29.74F FOG
MONTGOMERY     LGT RAIN  50  47  89 NE14      29.72S
WHITE PLAINS   DRIZZLE   49  46  90 NE9       29.70S
ISLIP          RAIN      48  45  89 NE16      29.70R FOG
NEW YORK CITY  LGT RAIN  50  48  93 NE21G31   29.70S FOG
CENTRAL PARK   HVY RAIN  48  45  89 E16G24    29.72S VSB 1/2
$$

NYZ005>009-017-018-044>046-055-056-061500-
CENTRAL


CITY           SKY/WX    TMP DP  RH WIND       PRES   REMARKS
FULTON         PTSUNNY   60  41  49 N15G21    29.84R
SYRACUSE       PTSUNNY   59  40  49 CALM      29.81R
ROME           MOSUNNY   59  41  51 CALM      29.81R
ELMIRA         CLOUDY    56  40  55 N10G20    29.79S
BINGHAMTON     CLOUDY    50  40  68 NE13      29.76S
MONTICELLO     CLOUDY    48  46  93 E7        29.75R
$$

NYZ026>034-041>043-087-061500-
NORTH


CITY           SKY/WX    TMP DP  RH WIND       PRES   REMARKS
WATERTOWN      SUNNY     58  41  53 NE14      29.85R
FORT DRUM      NOT AVBL
MASSENA        SUNNY     56  37  49 E13       29.91S
SARANAC LAKE   LGT RAIN  54  32  43 NE21G28   29.83R
PLATTSBURGH    MOSUNNY   56  39  53 N14       29.87S
$$

NYZ001>004-010>016-019>021-085-061500-
WEST


CITY           SKY/WX    TMP DP  RH WIND       PRES   REMARKS
NIAGARA FALLS  MOSUNNY   59  43  55 N9        29.88R
BUFFALO        MOSUNNY   60  42  51 N10       29.87R
DUNKIRK        SUNNY     55  44  66 N7        29.88R
JAMESTOWN      SUNNY     57  36  44 NE16      29.85R
WELLSVILLE     CLOUDY    53  36  52 NE17G23   29.83R
ROCHESTER      MOSUNNY   58  40  51 NE13      29.87R
PENN YAN       CLOUDY    55  39  54 N7G16     29.85R
$$

             KEY
       WCI = WIND CHILL INDEX
       VSB = VISIBILITY
       HX  = HEAT INDEX
$$




USA.gov is the U.S. government's official web portal to all federal, state and local government web resources and services.